Weather observations for the past three days for
Tampa, Tampa International Airport
Metric (Imperial)
Date Time (edt) Wind (kph) Vis. (km) Weather Sky Cond. Temperature (ºC) Relative Humidity Wind Chill (°C) Heat Index (°C) Pressure Precipitation (cm)
Air Dwpt 6 hour altimeter (cm) sea level (mb) 1 hr 3 hr 6 hr
Max. Min.
25 01:53 E 6 16.09 Mostly Cloudy SCT065 BKN080 27.2 23.9 29.4 26.7 82% 30 76.05 1013.6 0.05
25 00:53 NE 7 16.09 Overcast BKN065 OVC085 27.2 23.9 82% 30 76.07 1014.1
24 23:53 N 7 16.09 Partly Cloudy SCT090 26.7 23.9 85% 29 76.05 1013.8
24 22:53 NW 9 16.09 Partly Cloudy SCT090 27.2 23.9 82% 30 76.07 1014.1
24 21:53 NW 11 16.09 Fair CLR 27.8 23.9 79% 32 76.05 1013.8
24 20:53 NW 13 16.09 A Few Clouds FEW170 27.8 23.3 77% 31 76.02 1013.4
24 19:53 NW 17 G 35 16.09 Partly Cloudy SCT050 29.4 22.2 33.9 29.4 65% 33 75.97 1012.7
24 18:53 W 13 16.09 Partly Cloudy FEW040 SCT170 30.6 22.8 63% 35 75.95 1012.4
24 17:53 W 22 G 39 16.09 Partly Cloudy FEW040 SCT170 31.7 22.8 59% 36 75.95 1012.4
24 16:53 W 26 16.09 A Few Clouds FEW040 FEW180 32.2 22.8 58% 37 75.97 1012.7
24 15:53 W 13 16.09 Partly Cloudy FEW045 SCT240 33.9 18.3 40% 35 75.97 1012.8
24 14:53 SW 13 16.09 Partly Cloudy FEW045 SCT240 32.8 19.4 45% 35 76 1013.2
24 13:53 SW 13 16.09 Partly Cloudy FEW045 SCT240 32.2 19.4 32.8 25 47% 34 76.05 1013.7
24 12:53 SW 13 16.09 Partly Cloudy FEW045 SCT240 31.7 18.9 47% 33 76.07 1014.1
24 11:53 SW 11 16.09 Partly Cloudy FEW045 SCT240 29.4 22.2 65% 33 76.15 1015.1
24 10:53 SW 13 16.09 A Few Clouds FEW240 28.9 22.8 70% 32 76.17 1015.5
24 09:53 Calm 16.09 A Few Clouds FEW240 28.3 22.2 70% 31 76.17 1015.6
24 08:53 SE 13 16.09 A Few Clouds FEW240 26.1 21.7 77% 28 76.17 1015.4
24 07:53 SE 9 16.09 Fair CLR 25 21.1 26.1 23.9 79% 26 76.12 1014.8 0.08
24 06:53 E 6 16.09 A Few Clouds FEW250 23.9 20.6 82% 24 76.1 1014.6
24 05:53 Calm 16.09 A Few Clouds FEW250 24.4 20.6 79% 25 76.1 1014.4
24 04:53 Vrbl 6 16.09 A Few Clouds FEW250 24.4 20.6 79% 25 76.1 1014.3
24 03:53 SE 7 16.09 A Few Clouds FEW250 25 20 74% 26 76.1 1014.4
24 02:53 E 11 16.09 Fair CLR 25.6 19.4 69% 27 76.12 1014.8
24 01:53 SE 9 16.09 Fair CLR 26.1 18.9 29.4 26.1 65% 27 76.15 1015.1 0.13
24 00:53 SE 11 16.09 Fair CLR 27.2 18.3 58% 28 76.17 1015.4
23 23:53 E 6 16.09 A Few Clouds FEW030 27.2 22.2 74% 30 76.2 1015.8
23 22:53 N 7 16.09 A Few Clouds FEW030 27.2 22.8 77% 30 76.2 1015.9 0.13
23 21:53 NW 7 16.09 Fair CLR 27.2 22.2 74% 30 76.15 1015.2
23 20:53 NW 15 16.09 A Few Clouds FEW045 27.8 21.7 69% 30 76.12 1014.6 0.13
23 19:53 NW 19 G 35 16.09 A Few Clouds FEW045 29.4 20.6 33.9 28.9 59% 32 76.07 1014.2
23 18:53 NW 20 G 37 16.09 Partly Cloudy FEW045 SCT180 31.1 21.7 57% 34 76.07 1014.0
23 17:53 NW 19 16.09 Mostly Cloudy FEW070 BKN150 32.2 21.1 52% 35 76.05 1013.9
23 16:53 W 19 16.09 Partly Cloudy FEW045 SCT220 32.8 22.2 54% 37 76.05 1013.9
23 15:53 W 15 16.09 Partly Cloudy FEW045 SCT220 33.3 16.7 37% 34 76.05 1013.9
23 14:53 W 13 16.09 Mostly Cloudy FEW045 BKN220 32.8 17.2 39% 33 76.1 1014.5
23 13:53 W 17 16.09 Mostly Cloudy FEW045 BKN220 31.7 18.9 32.2 25 47% 33 76.15 1015.2
23 12:53 SW 15 16.09 Mostly Cloudy FEW045 BKN220 30.6 18.9 50% 32 76.17 1015.6
23 11:53 SW 17 16.09 Fair CLR 28.9 21.7 65% 32 76.25 1016.4
23 10:53 S 11 16.09 Fair CLR 30 18.9 51% 31 76.28 1016.7
23 09:53 Vrbl 6 16.09 Fair CLR 27.8 20 63% 29 76.3 1017.1
23 08:53 E 9 16.09 Fair CLR 26.1 20.6 72% 28 76.3 1017.1
23 07:53 E 11 16.09 Fair CLR 25 20.6 25.6 23.9 77% 26 76.25 1016.6
23 06:53 SE 6 16.09 Fair CLR 23.9 20 79% 24 76.23 1016.2
23 05:53 Vrbl 7 16.09 Fair CLR 23.9 20 79% 24 76.17 1015.6
23 04:53 Vrbl 7 16.09 A Few Clouds FEW250 23.9 20 79% 24 76.23 1016.1
23 03:53 Vrbl 7 16.09 Fair CLR 24.4 20 77% 25 76.23 1016.1
23 02:53 E 11 16.09 Fair CLR 25 20 74% 26 76.23 1016.2
23 01:53 E 9 16.09 A Few Clouds FEW250 25.6 19.4 29.4 25.6 69% 27 76.28 1016.8
23 00:53 E 13 G 30 16.09 A Few Clouds FEW250 26.1 19.4 67% 27 76.3 1017.1
22 23:53 E 17 G 30 16.09 A Few Clouds FEW250 27.2 18.9 61% 28 76.28 1016.7
22 22:53 E 17 16.09 A Few Clouds FEW250 28.9 18.9 55% 30 76.2 1015.6
22 21:53 N 11 16.09 A Few Clouds FEW040 FEW250 27.8 22.2 72% 30 76.12 1014.9
22 20:53 NW 13 16.09 A Few Clouds FEW045 FEW250 28.9 21.7 65% 32 76.05 1013.6
22 19:53 NW 20 16.09 Partly Cloudy FEW048 SCT250 29.4 21.1 33.9 29.4 61% 32 76.02 1013.6
22 18:53 W 20 G 33 16.09 Partly Cloudy FEW032 SCT055 SCT250 30.6 21.7 59% 34 76 1013.2
22 16:53 W 17 16.09 Partly Cloudy SCT055 SCT250 32.8 20.6 49% 36 76.02 1013.4
22 15:53 W 11 G 30 16.09 Partly Cloudy SCT055 SCT250 33.9 19.4 42% 36 76.07 1014.1
22 14:53 W 9 16.09 Partly Cloudy SCT055 SCT250 30.6 19.4 51% 32 76.15 1015.0
22 13:53 W 11 16.09 Mostly Cloudy BKN055 BKN085 BKN250 31.1 21.7 32.8 24.4 57% 34 76.2 1015.7
22 12:53 Vrbl 6 16.09 Mostly Cloudy BKN049 BKN250 30.6 19.4 51% 32 76.23 1016.3
22 11:53 Vrbl 7 16.09 Mostly Cloudy BKN043 BKN250 30.6 20 53% 33 76.23 1016.3
22 10:53 E 13 16.09 A Few Clouds FEW250 29.4 20 57% 31 76.25 1016.4
22 09:53 Vrbl 11 16.09 A Few Clouds FEW250 28.3 21.1 65% 31 76.25 1016.7
22 08:53 Vrbl 11 16.09 A Few Clouds FEW250 26.1 21.7 77% 28 76.23 1016.2
22 07:53 NE 7 16.09 A Few Clouds FEW250 24.4 22.2 25.6 23.3 88% 25 76.2 1015.7
22 06:53 Vrbl 6 16.09 A Few Clouds FEW250 23.9 21.7 88% 24 76.12 1014.9
22 05:53 Vrbl 6 16.09 A Few Clouds FEW250 23.9 21.7 88% 24 76.1 1014.3
22 04:53 NE 9 16.09 A Few Clouds FEW250 23.9 21.7 88% 24 76.07 1014.3
22 03:53 Vrbl 6 16.09 A Few Clouds FEW250 24.4 21.7 85% 25 76.07 1014.2
22 02:53 Vrbl 6 16.09 Fair CLR 25 21.1 79% 26 76.07 1014.2
Date Time (edt) Wind (kph) Vis. (km) Weather Sky Cond. Air Dwpt Max. Min. Relative Humidity Wind Chill (°C) Heat Index (°C) altimeter (cm) sea level (mb) 1 hr 3 hr 6 hr
6 hour
Temperature (ºC) Pressure Precipitation (cm)